User: anonymous   Login
Location: Alberta Star Party
(51.6612°N, 112.9089°W)
Time: 11:19:30
(UTC-06:00)
Language:

AO-Echo - Orbit

View from above orbital plane
View from above orbital plane
View from above satellite
View from above satellite

Ground track
Ground track

The orbit data is extracted from the following two-line orbital elements,

1 28375U 04025K   16269.05981747  .00000062  00000-0  31385-4 0  9993
2 28375  98.3328 202.3618 0082805   4.1022 356.0828 14.41799283643614
Epoch (UTC): 25 September 2016 01:26:08
Eccentricity: 0.0082805
inclination: 98.3328°
perigee height: 693 km
apogee height: 811 km
right ascension of ascending node: 202.3618°
argument of perigee: 4.1022°
revolutions per day: 14.41799283
mean anomaly at epoch: 356.0828°
orbit number at epoch: 64361

The dashed part of the orbit path shows where the satellite is in the earth's shadow,  

DLR